Powrót do katalogu

METEOR 2-17 DEB

AktywnyPO
NORAD 45521·DEBRIS·🇷🇺 Russia

Wystrzelony Jan 30, 1988 z Plesetsk Cosmodrome

Loading…

Następne Przeloty (najbliższe 24 godziny)

TLE

ŚwieżeSource: Space-Track

Epoka: Sep 14, 2026, 05:20 UTC

1 45521U 88005BB  26257.22266051  .00001262  00000-0  88558-3 0  9992
2 45521  82.5105 210.6659 0017910  68.5034 291.8041 13.97496001650256

Śledź METEOR 2-17 DEB w czasie rzeczywistym z AllMySat

Download on the App Store